Location: Newark
(32.8014°N, 52.8711°E)
Time: 21:59:22
(UTC+00:00)

X-37B - Visible Passes

Search period start: 26 February 2021 00:00
Search period end: 08 March 2021 00:00
Orbit: 383 x 391 km, 45.0° (Epoch: 10 February)

Date Brightness Start Highest point End Pass type
(mag) Time Alt. Az. Time Alt. Az. Time Alt. Az.
27 Feb 3.3 01:39:47 10° NNW 01:41:11 13° NNE 01:42:41 10° NE visible
28 Feb 2.3 02:17:07 10° NW 02:19:53 27° NNE 02:22:38 10° E visible
01 Mar 2.9 01:20:43 17° N 01:21:20 18° NNE 01:23:35 10° ENE visible
02 Mar 1.3 01:57:26 15° NW 01:59:52 50° NNE 02:02:57 10° ESE visible
03 Mar 2.7 01:01:59 26° NE 01:01:59 26° NE 01:04:11 10° E visible
04 Mar 0.4 01:38:58 45° WNW 01:39:45 72° SW 01:42:54 10° SE visible
05 Mar 3.6 00:43:46 16° ESE 00:43:46 16° ESE 00:44:29 10° ESE visible
05 Mar 2.6 02:16:06 11° WSW 02:17:46 15° SW 02:19:35 10° S visible
06 Mar 2.5 01:21:02 20° S 01:21:02 20° S 01:22:23 10° SSE visible
